This demonstration page uses our WeatherBlox Daily Observations layout. Learn more.

Left ArrowRight Arrow

47.50024, -111.30081

Hourly Observations for January 3, 2020

Temp ( °F °C ) Dew Point ( °F °C ) Humidity (%) Winds ( mph kmh ) Pressure ( in mb ) Visibility ( mi km ) Precip ( " mm )
12:53 am 00:53 Cloudy 27 -2.8 18 -7.8 69 69 SW 9 15 30.01 1016 10 16 0.00 0.00
1:53 am 01:53 Cloudy 29 -1.7 18 -7.8 63 63 SW 12 19 30.02 1017 10 16 0.00 0.00
2:53 am 02:53 Clear 28 -2.2 18 -7.8 66 66 SW 10 17 30.02 1017 10 16 0.00 0.00
3:53 am 03:53 Clear 28 -2.2 18 -7.8 66 66 SW 10 17 30.04 1017 10 16 0.00 0.00
4:53 am 04:53 Mostly Cloudy 30 -1.1 19 -7.2 64 64 SW 9 15 30.04 1017 10 16 0.00 0.00
5:53 am 05:53 Mostly Cloudy 32 0 20 -6.7 61 61 SW 13 20 30.03 1017 10 16 0.00 0.00
6:53 am 06:53 Clear 34 1.1 21 -6.1 59 59 SW 14 22 30.00 1016 10 16 0.00 0.00
7:53 am 07:53 Cloudy 36 2.2 23 -5 59 59 SW 15 24 29.99 1016 10 16 0.00 0.00
8:53 am 08:53 Cloudy 38 3.3 24 -4.4 57 57 SW 20 31 29.98 1015 10 16 0.00 0.00
9:53 am 09:53 Sunny 41 5 25 -3.9 53 53 SW 25 41 30.00 1016 10 16 0.00 0.00
10:53 am 10:53 Partly Cloudy 43 6.1 25 -3.9 49 49 SW 28 44 30.00 1016 10 16 0.00 0.00
11:53 am 11:53 Sunny 44 6.7 25 -3.9 47 47 SW 25 41 29.99 1016 10 16 0.00 0.00
12:53 pm 12:53 Sunny 45 7.2 25 -3.9 46 46 SW 28 44 29.97 1015 10 16 0.00 0.00
1:53 pm 13:53 Sunny 46 7.8 26 -3.3 46 46 SW 32 52 29.95 1014 10 16 0.00 0.00
2:53 pm 14:53 Sunny 45 7.2 26 -3.3 48 48 SW 32 52 29.97 1015 10 16 0.00 0.00
3:53 pm 15:53 Sunny 45 7.2 26 -3.3 48 48 SW 28 44 29.98 1015 10 16 0.00 0.00
4:53 pm 16:53 Clear 45 7.2 27 -2.8 49 49 SW 26 43 29.98 1015 10 16 0.00 0.00
5:53 pm 17:53 Clear 45 7.2 27 -2.8 49 49 SW 26 43 30.01 1016 10 16 0.00 0.00
6:53 pm 18:53 Clear 46 7.8 25 -3.9 44 44 SW 28 44 29.99 1016 10 16 0.00 0.00
7:53 pm 19:53 Clear 46 7.8 23 -5 40 40 SW 30 48 29.97 1015 10 16 0.00 0.00
8:53 pm 20:53 Clear 47 8.3 22 -5.6 37 37 SW 30 48 29.97 1015 10 16 0.00 0.00
9:53 pm 21:53 Clear 47 8.3 21 -6.1 36 36 SW 30 48 29.95 1014 10 16 0.00 0.00
10:53 pm 22:53 Clear 47 8.3 19 -7.2 33 33 SW 26 43 29.93 1014 10 16 0.00 0.00
11:53 pm 23:53 Clear 46 7.8 18 -7.8 32 32 SW 22 35 29.92 1013 10 16 0.00 0.00

Powered by AerisWeather